﻿_id,measured_on,direct_normal,global_normal,global_horizontal,diffuse_horizontal,poa_irradiance,clearsky_label
1,2014-01-01T00:00:00,0.0,-0.387,-2.6395,0.0,-2.162297,0
2,2014-01-01T00:01:00,0.0,-0.3318,-2.5272,0.0,-2.162294,0
3,2014-01-01T00:02:00,0.0,-0.1659,-2.5272,0.0,-1.861975,0
4,2014-01-01T00:03:00,-0.3209,-0.6082,-2.6957,0.0,-1.982095,0
5,2014-01-01T00:04:00,-0.7002,-0.9952,-2.6957,0.0,-1.982094,0
6,2014-01-01T00:05:00,-0.7002,-1.2716,-2.6958,0.0,-2.162282,0
7,2014-01-01T00:06:00,-0.5252,-1.3269,-2.6958,0.0,-2.162282,0
8,2014-01-01T00:07:00,-0.2334,-1.2164,-2.6958,0.0,-2.04216,0
9,2014-01-01T00:08:00,0.0,-1.0505,-2.5273,0.0,-1.982096,0
10,2014-01-01T00:09:00,0.0,-0.8294,-2.3027,0.0,-2.162283,0
11,2014-01-01T00:10:00,0.0,-0.4976,-2.0219,0.0,-1.922027,0
12,2014-01-01T00:11:00,0.0,-0.4976,-2.2465,0.0,-2.042146,0
13,2014-01-01T00:12:00,-0.0292,-0.8294,-2.6958,0.0,-2.162267,0
14,2014-01-01T00:13:00,0.0,-1.0505,-2.6959,0.0,-2.102196,0
15,2014-01-01T00:14:00,0.6419,-0.4976,-2.6959,0.0,-2.102193,0
16,2014-01-01T00:15:00,0.7295,-0.1659,-2.6959,0.0,-2.10219,0
17,2014-01-01T00:16:00,0.7003,0.0,-2.5274,0.0,-2.162249,0
18,2014-01-01T00:17:00,0.0,-0.7188,-2.6959,0.0,-2.162243,0
19,2014-01-01T00:18:00,-0.6419,-1.327,-2.6959,0.0,-2.582671,0
20,2014-01-01T00:19:00,-1.0796,-1.327,-2.6959,0.0,-2.762851,0
21,2014-01-01T00:20:00,-1.459,-1.327,-2.6959,0.0,-3.483577,0
22,2014-01-01T00:21:00,-1.9842,-1.327,-2.6959,0.0,-3.603688,0
23,2014-01-01T00:22:00,-2.1009,-1.327,-2.7521,0.0,-3.60367,0
24,2014-01-01T00:23:00,-2.1009,-1.327,-2.6959,0.0,-3.603661,0
25,2014-01-01T00:24:00,-1.6048,-1.327,-2.6959,0.0,-3.603643,0
26,2014-01-01T00:25:00,-1.4006,-1.327,-2.6959,0.0,-3.423455,0
27,2014-01-01T00:26:00,-1.4006,-1.327,-2.6959,0.0,-3.54356,0
28,2014-01-01T00:27:00,-1.4006,-1.327,-2.6959,0.0,-3.603616,0
29,2014-01-01T00:28:00,-0.7587,-1.327,-2.6959,0.0,-3.183198,0
30,2014-01-01T00:29:00,-0.5544,-1.327,-2.6959,0.0,-2.942957,0
31,2014-01-01T00:30:00,0.0,-1.327,-2.6959,0.0,-2.702715,0
32,2014-01-01T00:31:00,0.0,-1.327,-2.6958,0.0,-2.822835,0
33,2014-01-01T00:32:00,-0.0292,-1.327,-2.6958,0.0,-2.462469,0
34,2014-01-01T00:33:00,-0.2334,-1.327,-2.6958,0.0,-2.522528,0
35,2014-01-01T00:34:00,0.0,-1.327,-2.6958,0.0,-2.462463,0
36,2014-01-01T00:35:00,0.0,-1.327,-2.6958,0.0,-2.462463,0
37,2014-01-01T00:36:00,0.0,-1.327,-2.6958,0.0,-2.222231,0
38,2014-01-01T00:37:00,0.0,-1.327,-2.6958,0.0,-2.342352,0
39,2014-01-01T00:38:00,0.0875,-1.327,-2.6958,0.0,-2.402415,0
40,2014-01-01T00:39:00,0.4085,-1.327,-2.6959,0.0,-2.222233,0
41,2014-01-01T00:40:00,0.0875,-1.327,-2.6959,0.0,-2.342353,0
42,2014-01-01T00:41:00,0.0,-1.327,-2.6959,0.0,-2.462472,0
43,2014-01-01T00:42:00,0.0,-1.327,-2.6959,0.0,-2.582589,0
44,2014-01-01T00:43:00,0.0292,-1.327,-2.6959,0.0,-2.582586,0
45,2014-01-01T00:44:00,0.5252,-1.327,-2.6959,0.0,-2.462462,0
46,2014-01-01T00:45:00,0.2042,-1.327,-2.6959,0.0,-2.222219,0
47,2014-01-01T00:46:00,0.0292,-1.327,-2.6959,0.0,-2.162155,0
48,2014-01-01T00:47:00,0.0,-1.327,-2.6959,0.0,-2.522511,0
49,2014-01-01T00:48:00,0.0,-1.327,-2.6959,0.0,-2.882865,0
50,2014-01-01T00:49:00,0.0,-1.327,-2.6959,0.0,-3.063039,0
51,2014-01-01T00:50:00,0.0,-1.327,-2.6959,0.0,-2.882856,0
52,2014-01-01T00:51:00,-0.4377,-1.327,-2.6959,0.0,-3.303267,0
53,2014-01-01T00:52:00,-0.3209,-1.327,-2.6959,0.0,-3.60356,0
54,2014-01-01T00:53:00,0.0,-1.327,-2.6959,0.0,-3.183155,0
55,2014-01-01T00:54:00,0.0,-1.327,-2.6959,0.0,-2.88286,0
56,2014-01-01T00:55:00,0.0,-1.327,-2.6959,0.0,-3.002983,0
57,2014-01-01T00:56:00,-0.0875,-1.327,-2.6959,0.0,-3.603582,0
58,2014-01-01T00:57:00,-0.7003,-1.327,-3.2013,0.0,-3.12307,0
59,2014-01-01T00:58:00,-0.7003,-1.327,-4.0438,0.0,-3.183121,0
60,2014-01-01T00:59:00,-1.1963,-1.327,-4.0438,0.0,-3.363303,0
61,2014-01-01T01:00:00,-1.4005,-1.327,-4.0438,0.0,-3.303245,0
62,2014-01-01T01:01:00,-1.1088,-1.327,-4.0438,0.0,-2.942912,0
63,2014-01-01T01:02:00,-0.7003,-1.327,-4.0438,0.0,-3.002975,0
64,2014-01-01T01:03:00,-0.7003,-1.327,-4.0438,0.0,-3.603604,0
65,2014-01-01T01:04:00,-0.7003,-1.327,-4.0438,0.0,-3.603606,0
66,2014-01-01T01:05:00,-0.7878,-1.327,-4.0439,0.0,-3.603623,0
67,2014-01-01T01:06:00,-1.3714,-1.327,-4.0439,0.0,-3.783806,0
68,2014-01-01T01:07:00,-1.4006,-1.327,-4.0439,0.0,-4.024054,0
69,2014-01-01T01:08:00,-1.4006,-1.4376,-4.0439,0.0,-4.384417,0
70,2014-01-01T01:09:00,-1.2839,-2.2117,-4.1001,0.0,-4.624657,0
71,2014-01-01T01:10:00,-0.7003,-1.6035,-4.0439,0.0,-4.504534,0
72,2014-01-01T01:11:00,-0.4377,-1.327,-4.0439,0.0,-4.084105,0
73,2014-01-01T01:12:00,-0.6711,-1.327,-4.0439,0.0,-4.084101,0
74,2014-01-01T01:13:00,-0.7003,-1.327,-4.0439,0.0,-3.783794,0
75,2014-01-01T01:14:00,-0.2626,-1.327,-4.0439,0.0,-3.603608,0
76,2014-01-01T01:15:00,0.0,-1.327,-4.0439,0.0,-3.423422,0
77,2014-01-01T01:16:00,0.0,-1.327,-4.0439,0.0,-3.303308,0
78,2014-01-01T01:17:00,-0.5544,-1.327,-4.0439,0.0,-3.303313,0
79,2014-01-01T01:18:00,-0.7003,-1.327,-4.0439,0.0,-3.603616,0
80,2014-01-01T01:19:00,-0.7003,-1.327,-4.0439,0.0,-3.663678,0
81,2014-01-01T01:20:00,-0.7003,-1.327,-4.0439,0.0,-3.663692,0
82,2014-01-01T01:21:00,-0.7587,-1.327,-4.0439,0.0317,-3.603639,0
83,2014-01-01T01:22:00,-1.3131,-1.327,-4.0439,0.0634,-3.903948,0
84,2014-01-01T01:23:00,-1.4006,-1.714,-4.1001,0.0,-4.204254,0
85,2014-01-01T01:24:00,-1.5465,-2.4881,-4.7179,0.0951,-4.324396,0
86,2014-01-01T01:25:00,-2.1009,-2.654,-4.7179,0.0,-4.384464,0
87,2014-01-01T01:26:00,-1.634,-2.654,-4.7179,0.0,-4.684803,0
88,2014-01-01T01:27:00,-1.4006,-2.654,-4.0439,0.0,-4.384502,0
89,2014-01-01T01:28:00,-1.4006,-2.654,-4.0439,0.0,-4.504667,0
90,2014-01-01T01:29:00,-1.4006,-2.654,-4.0439,0.0,-4.744919,0
91,2014-01-01T01:30:00,-1.3131,-2.5434,-4.0439,0.0,-4.805031,0
92,2014-01-01T01:31:00,-1.3131,-2.0458,-4.0439,0.0,-4.264469,0
93,2014-01-01T01:32:00,-1.1671,-1.9905,-4.0439,0.0,-3.844064,0
94,2014-01-01T01:33:00,-0.7295,-1.9905,-4.0438,0.0,-3.60381,0
95,2014-01-01T01:34:00,-0.7003,-1.8246,-4.0438,0.0,-3.723947,0
96,2014-01-01T01:35:00,-0.7003,-1.5482,-4.0439,0.0,-3.603822,0
97,2014-01-01T01:36:00,-0.7003,-1.327,-4.0439,0.0,-3.723965,0
98,2014-01-01T01:37:00,-0.7003,-1.327,-4.0439,0.0,-4.32461,0
99,2014-01-01T01:38:00,-0.7003,-1.327,-4.0439,0.0,-4.264565,0
100,2014-01-01T01:39:00,-0.7003,-1.327,-4.0439,0.0,-4.564897,0
101,2014-01-01T01:40:00,-0.7003,-1.327,-4.0439,0.0,-4.384722,0
102,2014-01-01T01:41:00,-1.1672,-1.327,-4.0439,0.0,-4.504863,0
103,2014-01-01T01:42:00,-0.9045,-1.327,-4.0439,0.0,-4.324685,0
104,2014-01-01T01:43:00,-0.4669,-1.327,-4.0439,0.0,-4.264631,0
105,2014-01-01T01:44:00,0.2043,-1.327,-4.0439,0.0,-3.784122,0
106,2014-01-01T01:45:00,0.7003,-0.7188,-4.0439,0.0,-3.603936,0
107,2014-01-01T01:46:00,0.7003,0.0,-3.3138,0.0,-2.883157,0
108,2014-01-01T01:47:00,0.496,0.0,-3.033,0.0,-3.12343,0
109,2014-01-01T01:48:00,0.0,0.0,-4.044,0.0,-3.423767,0
110,2014-01-01T01:49:00,-0.5544,0.0,-4.044,0.1585,-3.603976,0
111,2014-01-01T01:50:00,-1.2839,-0.9953,-4.044,0.5705,-3.543916,0
112,2014-01-01T01:51:00,-1.5173,-1.3271,-4.044,0.3486,-3.603993,0
113,2014-01-01T01:52:00,-2.1009,-1.3271,-4.044,0.0,-3.72413,0
114,2014-01-01T01:53:00,-2.1009,-1.3271,-4.044,0.0,-3.784208,0
115,2014-01-01T01:54:00,-2.0426,-1.3271,-4.044,0.0,-4.084546,0
116,2014-01-01T01:55:00,-1.4006,-1.7694,-4.044,0.0,-4.20469,0
117,2014-01-01T01:56:00,-1.2256,-1.3271,-4.044,0.0,-4.324827,0
118,2014-01-01T01:57:00,-0.817,-1.3271,-4.044,0.0,-4.204703,0
119,2014-01-01T01:58:00,-0.7003,-1.3271,-4.044,0.0,-4.08457,0
120,2014-01-01T01:59:00,-0.8754,-1.3271,-4.044,0.0,-4.084579,0
121,2014-01-01T02:00:00,-0.7003,-1.3271,-4.044,0.0,-3.90438,0
122,2014-01-01T02:01:00,-0.5836,-1.3271,-4.044,0.0,-3.724208,0
123,2014-01-01T02:02:00,0.0,-1.3271,-4.044,0.0,-3.844346,0
124,2014-01-01T02:03:00,0.2626,-1.3271,-4.044,-0.2218,-3.784298,0
125,2014-01-01T02:04:00,0.7878,-1.3271,-2.9768,-0.7289,-3.243686,0
126,2014-01-01T02:05:00,1.4006,-1.3271,-2.696,-0.3486,-2.883285,0
127,2014-01-01T02:06:00,2.0718,-0.4977,-2.696,-0.0317,-2.582944,0
128,2014-01-01T02:07:00,2.2469,0.0,-2.696,0.0,-2.222537,0
129,2014-01-01T02:08:00,2.0135,0.0,-2.696,0.0,-2.162469,0
130,2014-01-01T02:09:00,1.1672,0.0,-2.696,0.0,-2.162471,0
131,2014-01-01T02:10:00,0.642,0.0,-2.696,0.0,-2.402753,0
132,2014-01-01T02:11:00,0.0,0.0,-3.3139,0.0,-2.402763,0
133,2014-01-01T02:12:00,-0.0875,-0.7741,-4.0441,0.0,-2.703113,0
134,2014-01-01T02:13:00,-0.6711,-1.3271,-4.0441,0.0,-3.183673,0
135,2014-01-01T02:14:00,-0.7003,-1.3271,-4.0441,0.0,-3.363896,0
136,2014-01-01T02:15:00,-0.7879,-1.3271,-4.0441,0.0,-3.604189,0
137,2014-01-01T02:16:00,-1.2547,-1.3271,-4.0441,0.0,-3.664283,0
138,2014-01-01T02:17:00,-0.963,-1.3271,-4.0441,0.0,-3.604229,0
139,2014-01-01T02:18:00,-0.7295,-1.3271,-4.0441,0.0,-3.604259,0
140,2014-01-01T02:19:00,-1.3131,-1.3271,-4.0441,0.0,-3.604274,0
141,2014-01-01T02:20:00,-1.4006,-1.3271,-4.0441,0.0,-3.604307,0
142,2014-01-01T02:21:00,-1.4006,-1.3271,-4.0441,0.0,-3.604319,0
143,2014-01-01T02:22:00,-1.3131,-1.3271,-4.0441,0.0,-3.78457,0
144,2014-01-01T02:23:00,-0.5252,-1.3271,-4.0441,0.0,-3.604363,0
145,2014-01-01T02:24:00,0.817,-1.3271,-3.5948,-0.729,-3.604398,0
146,2014-01-01T02:25:00,1.9843,-1.3271,-2.6961,-0.7607,-3.003671,0
147,2014-01-01T02:26:00,2.101,-0.8294,-2.6961,-0.1268,-2.342886,0
148,2014-01-01T02:27:00,2.101,-0.1659,-2.6961,0.0,-2.162666,0
149,2014-01-01T02:28:00,2.101,0.0,-2.6961,0.0,-1.982463,0
150,2014-01-01T02:29:00,2.101,0.0,-2.6961,0.0,-1.742166,0
151,2014-01-01T02:30:00,2.101,0.0,-2.6961,0.0,-1.441805,0
152,2014-01-01T02:31:00,1.8092,0.0,-2.6961,0.0,-1.561956,0
153,2014-01-01T02:32:00,1.78,0.0,-2.6961,0.0,-1.501892,0
154,2014-01-01T02:33:00,2.101,0.0,-2.6961,0.0,-0.8410604,0
155,2014-01-01T02:34:00,2.101,0.0,-2.6961,0.0,-0.7209132,0
156,2014-01-01T02:35:00,2.101,0.0,-2.6961,0.0,-0.7809907,0
157,2014-01-01T02:36:00,2.101,0.0,-2.6961,0.0,-0.7209175,0
158,2014-01-01T02:37:00,1.4007,0.0,-2.6961,0.0,-0.7209187,0
159,2014-01-01T02:38:00,1.3423,0.0,-2.6961,0.0,-0.720921,0
160,2014-01-01T02:39:00,0.7003,0.0,-2.6961,0.0,-0.7209203,0
161,2014-01-01T02:40:00,0.1751,0.0,-2.6961,0.0,-0.901149,0
162,2014-01-01T02:41:00,-0.1751,0.0,-2.6961,0.0,-1.501915,0
163,2014-01-01T02:42:00,-0.7003,-0.8847,-3.7072,0.0,-2.162757,0
164,2014-01-01T02:43:00,-0.7879,-1.3271,-4.0442,0.0,-2.162755,0
165,2014-01-01T02:44:00,-1.4007,-1.3271,-4.0442,0.0,-2.162754,0
166,2014-01-01T02:45:00,-1.4007,-1.3271,-4.0442,0.0317,-2.523214,0
167,2014-01-01T02:46:00,-1.4007,-1.3271,-4.0442,0.0,-2.883674,0
168,2014-01-01T02:47:00,-1.0213,-1.3271,-4.0442,0.0,-3.063892,0
169,2014-01-01T02:48:00,-0.1459,-1.3271,-4.0442,0.0,-2.943735,0
170,2014-01-01T02:49:00,0.0,-1.3271,-4.0442,0.0,-2.823578,0
171,2014-01-01T02:50:00,0.0,-1.3271,-4.0442,0.0,-2.703424,0
172,2014-01-01T02:51:00,0.0,-1.3271,-4.0442,0.0,-2.463109,0
173,2014-01-01T02:52:00,-0.642,-1.3271,-4.0442,0.0,-2.643331,0
174,2014-01-01T02:53:00,-0.7004,-1.3272,-4.0443,0.0,-2.643326,0
175,2014-01-01T02:54:00,-0.9922,-1.3272,-4.0443,0.0,-3.24408,0
176,2014-01-01T02:55:00,-1.3132,-1.3272,-4.0443,0.0,-3.424286,0
177,2014-01-01T02:56:00,-0.7879,-1.3272,-4.0443,0.0,-3.364209,0
178,2014-01-01T02:57:00,-0.7004,-1.3272,-4.0443,0.0,-3.424277,0
179,2014-01-01T02:58:00,-1.0214,-1.3272,-4.0443,0.0,-3.24405,0
180,2014-01-01T02:59:00,-1.4007,-1.3272,-4.0443,0.0,-3.304107,0
181,2014-01-01T03:00:00,-1.4007,-1.3272,-4.0443,0.0,-3.244031,0
182,2014-01-01T03:01:00,-1.4007,-1.3272,-4.0443,0.0,-3.484303,0
183,2014-01-01T03:02:00,-1.1089,-1.3272,-4.0443,0.0,-3.544372,0
184,2014-01-01T03:03:00,-0.7004,-1.3272,-4.0443,0.0,-3.364124,0
185,2014-01-01T03:04:00,-0.4378,-1.3272,-4.0443,0.0,-3.364115,0
186,2014-01-01T03:05:00,0.0,-1.3272,-4.0443,0.0,-3.243945,0
187,2014-01-01T03:06:00,0.0,-1.3272,-4.0443,0.0,-3.424153,0
188,2014-01-01T03:07:00,-0.1751,-1.3272,-4.0443,0.0,-3.484205,0
189,2014-01-01T03:08:00,-0.7004,-1.3272,-4.0443,0.0,-3.604337,0
190,2014-01-01T03:09:00,-0.7004,-1.3272,-4.0443,0.0,-3.484174,0
191,2014-01-01T03:10:00,-0.7004,-1.3272,-4.0443,0.0,-3.544233,0
192,2014-01-01T03:11:00,-0.7004,-1.3272,-4.0443,0.0,-3.604287,0
193,2014-01-01T03:12:00,-0.7004,-1.3272,-4.0443,0.0,-3.604274,0
194,2014-01-01T03:13:00,-0.7004,-1.3272,-4.0443,0.0,-3.60426,0
195,2014-01-01T03:14:00,-0.7004,-1.3272,-4.0443,0.0,-3.604246,0
196,2014-01-01T03:15:00,-0.7004,-1.3271,-3.6511,0.0,-3.484095,0
197,2014-01-01T03:16:00,-0.7004,-1.3271,-2.7524,0.0,-3.30387,0
198,2014-01-01T03:17:00,-0.7003,-1.3271,-2.8085,0.0,-3.363934,0
199,2014-01-01T03:18:00,-0.7003,-1.3271,-2.8647,0.0,-3.30385,0
200,2014-01-01T03:19:00,-0.7003,-1.3271,-3.0894,0.0,-2.943426,0
201,2014-01-01T03:20:00,-0.7003,-1.3271,-3.988,0.0,-3.484044,0
202,2014-01-01T03:21:00,-0.7003,-1.3271,-4.0442,0.0,-3.363901,0
203,2014-01-01T03:22:00,-0.2918,-1.3271,-3.8195,0.0,-3.123612,0
204,2014-01-01T03:23:00,0.0,-1.3271,-2.6961,0.0,-2.943402,0
205,2014-01-01T03:24:00,0.0,-1.3271,-2.6961,0.0,-3.003462,0
206,2014-01-01T03:25:00,0.321,-1.3271,-2.6961,0.0,-2.943392,0
207,2014-01-01T03:26:00,0.7003,-0.4424,-2.6961,0.0,-2.763195,0
208,2014-01-01T03:27:00,0.7003,0.0,-2.6961,0.0,-2.582987,0
209,2014-01-01T03:28:00,0.7003,0.0,-2.6961,0.0,-2.222574,0
210,2014-01-01T03:29:00,0.7003,0.0,-2.6961,0.0,-2.162504,0
211,2014-01-01T03:30:00,0.2918,0.0,-2.6961,0.0,-2.162504,0
212,2014-01-01T03:31:00,0.0,0.0,-2.6961,0.0,-2.222574,0
213,2014-01-01T03:32:00,0.0,0.0,-2.6961,0.0,-2.222572,0
214,2014-01-01T03:33:00,-0.321,0.0,-2.6961,0.0,-2.222571,0
215,2014-01-01T03:34:00,-0.7003,0.0,-2.6961,0.0,-2.703124,0
216,2014-01-01T03:35:00,-0.7003,-1.0506,-2.6961,0.0,-2.88333,0
217,2014-01-01T03:36:00,-0.7003,-1.3271,-2.7523,0.0,-2.883327,0
218,2014-01-01T03:37:00,-0.7003,-1.3271,-3.9879,0.0,-3.003463,0
219,2014-01-01T03:38:00,-0.8754,-1.3271,-4.0441,0.1585,-3.243737,0
220,2014-01-01T03:39:00,-1.3132,-1.3271,-4.0441,0.5705,-3.60415,0
221,2014-01-01T03:40:00,-1.3715,-1.3271,-4.0441,0.4754,-3.604148,0
222,2014-01-01T03:41:00,-1.4007,-1.3271,-4.0441,0.0317,-3.484003,0
223,2014-01-01T03:42:00,-1.4007,-1.3271,-4.0441,0.0,-3.604135,0
224,2014-01-01T03:43:00,-1.4007,-1.3271,-4.0441,0.0,-3.60413,0
225,2014-01-01T03:44:00,-1.4007,-1.3271,-3.9318,0.0,-3.36385,0
226,2014-01-01T03:45:00,-1.4007,-1.3271,-2.6961,0.0,-3.063502,0
227,2014-01-01T03:46:00,-1.4007,-1.3271,-2.6961,0.0,-2.943362,0
228,2014-01-01T03:47:00,-0.8754,-1.3271,-2.6961,0.0,-2.522879,0
229,2014-01-01T03:48:00,-0.7003,-1.3271,-2.3029,0.0,-2.282604,0
230,2014-01-01T03:49:00,-0.7003,-1.3271,-1.348,0.0,-2.042328,0
231,2014-01-01T03:50:00,-0.6711,-1.3271,-1.348,0.0,-2.042327,0
232,2014-01-01T03:51:00,-0.6711,-1.3271,-1.348,0.0,-1.561778,0
233,2014-01-01T03:52:00,-0.7003,-1.3271,-1.348,0.0,-1.741983,0
234,2014-01-01T03:53:00,-0.642,-1.3271,-1.348,0.0,-1.501708,0
235,2014-01-01T03:54:00,-0.4669,-1.3271,-1.348,0.0,-1.741981,0
236,2014-01-01T03:55:00,-0.0292,-1.3271,-1.348,0.0,-1.922185,0
237,2014-01-01T03:56:00,0.0,-1.3271,-1.348,0.0,-1.862116,0
238,2014-01-01T03:57:00,0.0,-1.3271,-1.348,0.0,-1.501706,0
239,2014-01-01T03:58:00,0.0,-1.3271,-1.348,0.0,-1.621843,0
240,2014-01-01T03:59:00,0.0,-1.3271,-1.348,0.0,-1.621842,0
241,2014-01-01T04:00:00,0.5544,-0.7741,-1.348,0.0,-0.840955,0
242,2014-01-01T04:01:00,0.7003,0.0,-1.348,0.0,-1.441637,0
243,2014-01-01T04:02:00,1.0796,0.0,-1.348,0.0,-1.3215,0
244,2014-01-01T04:03:00,1.4006,0.0,-1.348,0.0,-1.3215,0
245,2014-01-01T04:04:00,1.4006,0.0,-1.348,0.0,-0.7208197,0
246,2014-01-01T04:05:00,1.6633,0.0,-1.348,0.0,-0.7808915,0
247,2014-01-01T04:06:00,2.2177,0.0,-1.348,-0.412,-0.9610986,0
248,2014-01-01T04:07:00,2.4511,0.0,-1.2918,-0.6973,-0.6006881,0
249,2014-01-01T04:08:00,2.2761,0.0,-1.348,0.0,-0.6607574,0
250,2014-01-01T04:09:00,1.6341,0.0,-1.348,0.0,-0.6006894,0
251,2014-01-01T04:10:00,0.7878,0.0,-1.348,0.0,-0.7808965,0
252,2014-01-01T04:11:00,0.0292,0.0,-1.348,0.0,-1.081242,0
253,2014-01-01T04:12:00,0.0,0.0,-1.348,0.0,-1.321518,0
254,2014-01-01T04:13:00,0.0,0.0,-1.348,0.0,-1.321518,0
255,2014-01-01T04:14:00,0.0,0.0,-1.348,0.0,-1.261448,0
256,2014-01-01T04:15:00,0.0,0.0,-1.4042,0.0,-1.261448,0
257,2014-01-01T04:16:00,0.0,0.0,-1.348,0.0,-1.141309,0
258,2014-01-01T04:17:00,0.4961,0.0,-1.348,0.0,-1.141309,0
259,2014-01-01T04:18:00,0.7003,0.0,-1.348,0.0,-0.7808949,0
260,2014-01-01T04:19:00,0.7003,0.0,-1.348,0.0,-0.8409634,0
261,2014-01-01T04:20:00,0.6711,0.0,-1.348,0.0,-0.6607564,0
262,2014-01-01T04:21:00,0.321,0.0,-1.348,0.0,-0.720825,0
263,2014-01-01T04:22:00,0.2043,0.0,-1.348,0.0,-0.7208242,0
264,2014-01-01T04:23:00,0.2918,0.0,-1.3481,0.0,-0.7208241,0
265,2014-01-01T04:24:00,0.0,0.0,-1.3481,0.0,-0.7208233,0
266,2014-01-01T04:25:00,0.0,0.0,-1.3481,0.0,-0.7808919,0
267,2014-01-01T04:26:00,0.0,0.0,-1.3481,0.0,-1.081234,0
268,2014-01-01T04:27:00,0.0,-0.2765,-1.7413,0.0,-0.9610967,0
269,2014-01-01T04:28:00,0.0,-0.4977,-1.9659,0.0,-1.501712,0
270,2014-01-01T04:29:00,0.0,-0.9953,-1.5728,0.0,-1.441644,0
271,2014-01-01T04:30:00,0.0,-1.1612,-1.3481,0.0,-1.501711,0
272,2014-01-01T04:31:00,-0.1459,-1.2165,-1.3481,0.0,-1.381574,0
273,2014-01-01T04:32:00,-0.6711,-1.3271,-1.3481,0.0,-1.50171,0
274,2014-01-01T04:33:00,-0.4086,-1.3271,-1.4043,0.0,-1.561778,0
275,2014-01-01T04:34:00,-0.642,-1.3271,-1.3481,0.0,-1.501709,0
276,2014-01-01T04:35:00,-0.1459,-1.3271,-1.3481,0.0,-1.441639,0
277,2014-01-01T04:36:00,-0.5836,-1.3271,-1.3481,0.0,-1.501706,0
278,2014-01-01T04:37:00,-0.7003,-1.3271,-1.5166,0.0,-1.862113,0
279,2014-01-01T04:38:00,-0.7003,-1.3271,-1.6851,0.0,-1.621839,0
280,2014-01-01T04:39:00,-0.7003,-1.3271,-2.4714,0.0,-1.922179,0
281,2014-01-01T04:40:00,-0.7003,-1.3271,-2.6961,0.0,-1.982246,0
282,2014-01-01T04:41:00,-0.7295,-1.3271,-2.6961,0.0,-1.982245,0
283,2014-01-01T04:42:00,-1.1672,-1.3271,-2.6961,0.0,-1.982245,0
284,2014-01-01T04:43:00,-0.9338,-1.3271,-2.6961,0.0,-2.162448,0
285,2014-01-01T04:44:00,-0.7295,-1.3271,-2.6961,0.0,-2.10238,0
286,2014-01-01T04:45:00,-0.9921,-1.3271,-2.6961,0.0,-2.162448,0
287,2014-01-01T04:46:00,-1.0213,-1.3271,-2.6961,0.0,-2.162448,0
288,2014-01-01T04:47:00,-1.1089,-1.3271,-2.6961,0.0,-2.162448,0
289,2014-01-01T04:48:00,-0.9921,-1.3271,-2.6961,0.0,-2.222516,0
290,2014-01-01T04:49:00,-0.7587,-1.3271,-2.6961,0.0,-2.402716,0
291,2014-01-01T04:50:00,-0.7003,-1.3271,-2.6961,0.0,-2.402716,0
292,2014-01-01T04:51:00,-0.7003,-1.3271,-2.6961,0.0,-2.282578,0
293,2014-01-01T04:52:00,-0.7003,-1.3271,-2.6961,0.0,-2.162442,0
294,2014-01-01T04:53:00,-0.7003,-1.3271,-2.6961,0.0,-2.46278,0
295,2014-01-01T04:54:00,-0.7003,-1.3271,-2.6961,0.0,-2.162441,0
296,2014-01-01T04:55:00,-0.7003,-1.3271,-2.6961,0.0,-2.222509,0
297,2014-01-01T04:56:00,-0.7003,-1.3271,-2.6961,0.0,-2.162441,0
298,2014-01-01T04:57:00,-0.7003,-1.3271,-2.6961,0.0,-2.162441,0
299,2014-01-01T04:58:00,-0.7003,-1.3271,-2.5838,0.0,-1.92217,0
300,2014-01-01T04:59:00,-0.7003,-1.3271,-1.9659,0.0,-1.6819,0
301,2014-01-01T05:00:00,-0.7003,-1.3271,-1.348,0.0,-1.441626,0
302,2014-01-01T05:01:00,-0.7003,-1.3271,-1.348,0.0,-1.621822,0
303,2014-01-01T05:02:00,-0.7003,-1.3271,-1.348,0.0,-1.922157,0
304,2014-01-01T05:03:00,-0.7003,-1.3271,-1.348,0.0,-2.162421,0
305,2014-01-01T05:04:00,-0.7003,-1.3271,-1.348,0.0,-2.16242,0
306,2014-01-01T05:05:00,-0.7003,-1.3271,-1.348,0.0,-1.922149,0
307,2014-01-01T05:06:00,-0.8754,-1.3271,-1.348,0.0,-1.862081,0
308,2014-01-01T05:07:00,-0.8754,-1.3271,-1.348,0.0,-1.982215,0
309,2014-01-01T05:08:00,-0.7003,-1.3271,-1.348,0.0,-1.44161,0
310,2014-01-01T05:09:00,-0.7003,-1.3271,-1.348,0.0,-1.441609,0
311,2014-01-01T05:10:00,-0.7003,-1.3271,-1.348,0.0,-1.741944,0
312,2014-01-01T05:11:00,-0.7003,-1.3271,-1.348,0.0,-1.862078,0
313,2014-01-01T05:12:00,-0.7003,-1.3271,-1.348,0.0,-1.802012,0
314,2014-01-01T05:13:00,-0.7003,-1.3271,-1.348,0.0,-2.04228,0
315,2014-01-01T05:14:00,-0.7003,-1.3271,-1.348,0.0,-1.982215,0
316,2014-01-01T05:15:00,-0.1751,-1.3271,-1.348,0.0,-1.68188,0
317,2014-01-01T05:16:00,0.0,-1.3271,-1.348,0.0,-1.802016,0
318,2014-01-01T05:17:00,0.0,-1.3271,-1.348,0.0,-1.561748,0
319,2014-01-01T05:18:00,0.2335,-1.2165,-1.348,0.0,-1.50168,0
320,2014-01-01T05:19:00,0.1167,-0.3318,-1.348,0.0,-1.441613,0
321,2014-01-01T05:20:00,0.0,-0.3318,-1.348,0.0,-1.441613,0
322,2014-01-01T05:21:00,0.0,-0.2765,-1.348,0.0,-1.441613,0
323,2014-01-01T05:22:00,0.0,-0.8294,-1.348,0.0,-1.561749,0
324,2014-01-01T05:23:00,0.0,-1.2718,-1.348,0.0,-1.862085,0
325,2014-01-01T05:24:00,0.0,-1.1059,-1.348,0.0,-1.441616,0
326,2014-01-01T05:25:00,0.0,-1.0506,-1.348,0.0,-1.441616,0
327,2014-01-01T05:26:00,-0.0584,-1.2718,-1.4042,0.0,-1.441618,0
328,2014-01-01T05:27:00,-0.0584,-1.2165,-1.6288,0.0,-1.802022,0
329,2014-01-01T05:28:00,0.0,-1.2165,-1.685,0.0,-1.802024,0
330,2014-01-01T05:29:00,0.0,-1.2165,-2.5276,0.0,-1.862092,0
331,2014-01-01T05:30:00,0.0,-0.8847,-2.022,0.0,-1.681891,0
332,2014-01-01T05:31:00,0.0,-0.5529,-2.1905,0.0,-1.862095,0
333,2014-01-01T05:32:00,0.0,-0.1106,-2.3591,0.0,-1.862096,0
334,2014-01-01T05:33:00,0.0,-0.0553,-2.022,0.0,-1.741962,0
335,2014-01-01T05:34:00,0.0,-0.0553,-1.9097,0.0,-1.621827,0
336,2014-01-01T05:35:00,0.0,-0.0553,-2.3591,0.0,-1.681896,0
337,2014-01-01T05:36:00,0.0,-0.1659,-2.6961,0.0,-2.102373,0
338,2014-01-01T05:37:00,0.0,-0.6635,-2.6961,0.0,-1.862103,0
339,2014-01-01T05:38:00,-0.2626,-0.94,-2.6961,0.0,-1.922172,0
340,2014-01-01T05:39:00,-0.6711,-1.3271,-2.6961,0.0,-1.681901,0
341,2014-01-01T05:40:00,-0.7003,-1.3271,-2.6961,0.0,-2.102378,0
342,2014-01-01T05:41:00,-0.7003,-1.3271,-2.6961,0.0,-1.922175,0
343,2014-01-01T05:42:00,-0.4669,-1.3271,-2.6961,0.0,-2.042311,0
344,2014-01-01T05:43:00,-0.2626,-1.3271,-2.6961,0.0,-1.741972,0
345,2014-01-01T05:44:00,-0.6711,-1.3271,-2.6961,0.0,-2.042312,0
346,2014-01-01T05:45:00,-0.1167,-1.3271,-2.6961,0.0,-1.922177,0
347,2014-01-01T05:46:00,0.0,-1.2718,-2.6961,0.0,-2.102381,0
348,2014-01-01T05:47:00,0.0,-1.1612,-2.6961,0.0,-2.16245,0
349,2014-01-01T05:48:00,0.0,-1.2718,-2.6961,0.0,-2.102382,0
350,2014-01-01T05:49:00,0.0,-0.9953,-2.6961,0.0,-2.102383,0
351,2014-01-01T05:50:00,0.0,-1.3271,-2.6961,0.0,-2.162451,0
352,2014-01-01T05:51:00,-0.0584,-1.3271,-2.6961,0.0,-2.162466,0
353,2014-01-01T05:52:00,-0.642,-1.3271,-2.6961,0.0,-2.162467,0
354,2014-01-01T05:53:00,-0.7003,-1.3271,-2.6961,0.0,-2.222544,0
355,2014-01-01T05:54:00,-0.7003,-1.3271,-2.6961,0.0,-2.462819,0
356,2014-01-01T05:55:00,-1.2255,-1.3271,-2.6961,0.0,-2.643031,0
357,2014-01-01T05:56:00,-1.4006,-1.3271,-2.8084,0.0,-2.883307,0
358,2014-01-01T05:57:00,-1.4006,-1.3271,-3.3139,0.0,-2.883309,0
359,2014-01-01T05:58:00,-1.2839,-1.3271,-4.0441,0.0,-3.123585,0
360,2014-01-01T05:59:00,-0.8462,-1.3271,-4.0441,0.0,-3.183654,0
361,2014-01-01T06:00:00,-0.7003,-1.3271,-4.0441,0.0,-3.003447,0
362,2014-01-01T06:01:00,-0.7003,-1.3271,-4.0441,0.0,-3.003446,0
363,2014-01-01T06:02:00,-0.7003,-1.3271,-4.0441,0.0,-3.183651,0
364,2014-01-01T06:03:00,-0.7003,-1.3271,-4.0441,0.0,-3.483994,0
365,2014-01-01T06:04:00,-0.7003,-1.3271,-4.0441,0.0,-3.123579,0
366,2014-01-01T06:05:00,-0.7003,-1.3271,-4.0441,0.0,-3.243715,0
367,2014-01-01T06:06:00,-0.7003,-1.3271,-4.0441,0.0,-3.063507,0
368,2014-01-01T06:07:00,-0.4961,-1.3271,-4.0441,0.0,-3.123574,0
369,2014-01-01T06:08:00,-0.2918,-1.3271,-4.0441,0.0,-3.003434,0
370,2014-01-01T06:09:00,-0.0584,-1.3271,-3.9318,0.0,-3.063502,0
371,2014-01-01T06:10:00,0.0,-1.3271,-2.8646,0.0,-2.883294,0
372,2014-01-01T06:11:00,0.0,-1.3271,-2.6961,0.0,-2.823224,0
373,2014-01-01T06:12:00,0.0,-1.3271,-2.6961,0.0,-2.462824,0
374,2014-01-01T06:13:00,0.0,-1.3271,-2.6961,0.0,-2.522896,0
375,2014-01-01T06:14:00,-0.0876,-1.3271,-2.6961,0.0,-2.222556,0
376,2014-01-01T06:15:00,0.0,-1.3271,-2.6961,0.0,-2.162489,0
377,2014-01-01T06:16:00,0.0,-1.3271,-2.6961,0.0,-2.222561,0
378,2014-01-01T06:17:00,0.1167,-1.2718,-2.6961,0.0,-2.162492,0
379,2014-01-01T06:18:00,0.0,-1.1059,-2.6961,0.0,-2.162506,0
380,2014-01-01T06:19:00,0.0,-1.2718,-2.6961,0.0,-2.162507,0
381,2014-01-01T06:20:00,-0.2335,-1.3271,-2.6961,0.0,-2.162515,0
382,2014-01-01T06:21:00,-0.2918,-1.3271,-2.6961,0.0,-2.162515,0
383,2014-01-01T06:22:00,-0.0584,-1.3271,-2.6961,0.0,-2.282656,0
384,2014-01-01T06:23:00,-0.4377,-1.3271,-2.6961,0.0,-2.222588,0
385,2014-01-01T06:24:00,-0.4377,-1.3271,-2.6961,0.0,-2.282671,0
386,2014-01-01T06:25:00,-0.6128,-1.3271,-2.6961,0.0,-2.162531,0
387,2014-01-01T06:26:00,0.0,-1.3271,-2.6961,0.0,-2.162536,0